Jackson, KY

12:44 PM EST on January 19, 2018 (GMT -0500)
Carroll

Weather History for KJKL - February, 2012

Change the Weather History Date:

Wednesday, February 29, 2012

  Actual Average Record
Temperature  
Mean Temperature 63 °F 42 °F  
Max Temperature 70 °F 52 °F 70 °F (2012)
Min Temperature 56 °F 33 °F 18 °F (1996)
Degree Days  
Heating Degree Days 2 23  
Month to date heating degree days 670 757  
Since 1 July heating degree days 2821 3323  
Cooling Degree Days 0 0  
Month to date cooling degree days 0 0  
Year to date cooling degree days 0 0  
Growing Degree Days 12 (Base 50)    
Moisture  
Dew Point 54 °F    
Average Humidity 72    
Maximum Humidity 100    
Minimum Humidity 44    
Precipitation  
Precipitation 1.58 in 0.14 in 1.58 in (2012)
Month to date precipitation 3.90 3.75  
Year to date precipitation 8.76 7.36  
Snow  
Snow 0.00 in 0.10 in 0.30 in (1996)
Month to date snowfall 5.5 7.0  
Since 1 July snowfall 9.7 19.6  
Snow Depth 0.00 in    
Sea Level Pressure  
Sea Level Pressure 29.81 in    
Wind  
Wind Speed 8 mph (SW)    
Max Wind Speed 20 mph    
Max Gust Speed 38 mph    
Visibility 6 miles    
Events Fog , Rain , Thunderstorm    
T = Trace of Precipitation, MM = Missing Value Source: NWS Daily Summary

Daily Weather History Graph

Daily Weather History Graph

Search for Another Location

Airport or City:

Trip Planner

Search our weather history database for the weather conditions in past years. The results will help you decide how hot, cold, wet, or windy it might be!

Date:

Astronomy

Feb. 29, 2012 Rise Set
Actual Time 7:05 AM EST 6:26 PM EST
Civil Twilight 6:39 AM EST 6:52 PM EST
Nautical Twilight 6:08 AM EST 7:23 PM EST
Astronomical Twilight 5:38 AM EST 7:53 PM EST
Moon 11:04 AM EST (2/29) 1:03 AM EST (2/29)
Length of Visible Light 12h 13m
Length of Day
11h 21m
Waxing Crescent, 47% of the Moon is Illuminated
Feb 29
Waxing Crescent
Feb 29
First Quarter
Mar 8
Full
Mar 14
Last Quarter
Mar 22
New

Hourly Weather History & Observations

Time (EST) Temp. Dew Point Humidity Pressure Visibility Wind Dir Wind Speed Gust Speed Precip Events Conditions
12:53 AM 59.0 °F 39.9 °F 49% 30.05 in 10.0 mi SSW 8.1 mph - N/A   Overcast
1:53 AM 59.0 °F 42.1 °F 53% 30.03 in 10.0 mi South 5.8 mph - 0.00 in Rain , Thunderstorm Light Rain
2:19 AM 59.0 °F 42.8 °F 55% 30.03 in 10.0 mi Variable 3.5 mph - 0.00 in   Mostly Cloudy
2:53 AM 60.1 °F 45.0 °F 57% 29.95 in 10.0 mi Variable 6.9 mph - 0.00 in   Overcast
3:29 AM 60.8 °F 46.4 °F 59% 29.95 in 10.0 mi Variable 6.9 mph - N/A   Mostly Cloudy
3:53 AM 60.1 °F 48.0 °F 64% 29.92 in 10.0 mi Variable 5.8 mph - 0.00 in Rain Light Rain
4:28 AM 60.8 °F 51.8 °F 72% 29.95 in 9.0 mi Variable 5.8 mph - 0.00 in Rain Light Rain
4:36 AM 59.0 °F 51.8 °F 77% 29.95 in 7.0 mi SSW 6.9 mph - 0.01 in Rain , Thunderstorm Light Thunderstorms and Rain
4:42 AM 57.2 °F 53.6 °F 88% 29.95 in 1.8 mi Variable 4.6 mph - 0.03 in Rain , Thunderstorm Heavy Thunderstorms and Rain
4:49 AM 57.2 °F 53.6 °F 88% 29.95 in 1.5 mi Variable 5.8 mph - 0.15 in Rain , Thunderstorm Light Thunderstorms and Rain
4:53 AM 57.0 °F 54.0 °F 89% 29.94 in 5.0 mi Variable 4.6 mph - 0.15 in Rain , Thunderstorm Light Thunderstorms and Rain
5:00 AM 55.4 °F 53.6 °F 94% 29.96 in 2.5 mi Variable 4.6 mph - 0.03 in Rain , Thunderstorm Heavy Thunderstorms and Rain
5:14 AM 55.4 °F 55.4 °F 100% 29.93 in 7.0 mi Variable 3.5 mph - 0.07 in Rain , Thunderstorm Light Thunderstorms and Rain
5:23 AM 57.2 °F 55.4 °F 94% 29.90 in 10.0 mi Variable 6.9 mph - 0.07 in Rain Light Rain
5:53 AM 57.9 °F 55.0 °F 90% 29.89 in 10.0 mi SSW 6.9 mph - 0.07 in   Overcast
6:53 AM 60.1 °F 55.0 °F 83% 29.88 in 10.0 mi SSW 8.1 mph 18.4 mph N/A   Overcast
7:53 AM 62.1 °F 55.9 °F 80% 29.90 in 10.0 mi SW 11.5 mph 18.4 mph 0.00 in   Overcast
8:53 AM 63.0 °F 57.0 °F 81% 29.91 in 10.0 mi SW 9.2 mph 25.3 mph 0.00 in   Overcast
9:53 AM 64.0 °F 57.0 °F 78% 29.91 in 10.0 mi SW 8.1 mph - N/A   Overcast
10:53 AM 66.0 °F 55.9 °F 70% 29.87 in 10.0 mi Variable 4.6 mph 16.1 mph N/A   Mostly Cloudy
11:02 AM 66.2 °F 57.2 °F 73% 29.90 in 10.0 mi Variable 4.6 mph - N/A   Overcast
11:53 AM 68.0 °F 55.9 °F 65% 29.87 in 10.0 mi Variable 5.8 mph - N/A   Overcast
12:53 PM 69.1 °F 55.9 °F 63% 29.82 in 10.0 mi Variable 6.9 mph 21.9 mph 0.00 in   Overcast
1:53 PM 63.0 °F 57.9 °F 84% 29.77 in 3.0 mi South 11.5 mph 21.9 mph 0.02 in Rain , Thunderstorm Rain
2:02 PM 62.6 °F 59.0 °F 88% 29.80 in 1.5 mi South 9.2 mph 21.9 mph 0.01 in Rain , Thunderstorm Thunderstorms and Rain
2:09 PM 60.8 °F 59.0 °F 94% 29.79 in 0.5 mi Variable 3.5 mph - 0.15 in Fog , Rain , Thunderstorm Heavy Thunderstorms and Rain
2:15 PM 60.8 °F 59.0 °F 94% 29.78 in 1.8 mi SSW 9.2 mph 18.4 mph 0.17 in Rain , Thunderstorm Thunderstorms and Rain
2:20 PM 62.6 °F 59.0 °F 88% 29.78 in 3.0 mi South 9.2 mph 18.4 mph 0.18 in Rain , Thunderstorm Thunderstorms and Rain
2:40 PM 60.8 °F 59.0 °F 94% 29.83 in 1.5 mi WNW 19.6 mph 31.1 mph 0.25 in Rain , Thunderstorm Heavy Thunderstorms and Rain
2:46 PM 57.2 °F 55.4 °F 94% 29.82 in 0.8 mi West 11.5 mph 31.1 mph 0.50 in Rain , Thunderstorm Heavy Thunderstorms and Rain
2:53 PM 55.9 °F 55.0 °F 97% 29.78 in 0.5 mi SW 8.1 mph 31.1 mph 0.84 in Fog , Rain , Thunderstorm Heavy Thunderstorms and Rain
2:59 PM 55.4 °F 55.4 °F 100% 29.81 in 1.0 mi SW 8.1 mph 17.3 mph 0.05 in Rain , Thunderstorm Heavy Thunderstorms and Rain
3:08 PM 55.4 °F 55.4 °F 100% 29.80 in 2.0 mi Variable 6.9 mph - 0.13 in Rain , Thunderstorm Thunderstorms and Rain
3:23 PM 55.4 °F 55.4 °F 100% 29.77 in 1.8 mi SW 8.1 mph 19.6 mph 0.18 in Rain , Thunderstorm Thunderstorms and Rain
3:31 PM 55.4 °F 55.4 °F 100% 29.76 in 1.2 mi SW 9.2 mph - 0.27 in Rain , Thunderstorm Light Thunderstorms and Rain
3:35 PM 55.4 °F 55.4 °F 100% 29.76 in 2.5 mi SW 9.2 mph - 0.27 in Rain , Thunderstorm Light Thunderstorms and Rain
3:42 PM 57.2 °F 55.4 °F 94% 29.75 in 10.0 mi SW 4.6 mph - 0.27 in Rain , Thunderstorm Light Rain
3:53 PM 57.0 °F 55.0 °F 93% 29.74 in 4.0 mi Variable 5.8 mph - 0.28 in Rain , Thunderstorm Light Rain
3:59 PM 57.2 °F 55.4 °F 94% 29.75 in 1.8 mi Variable 4.6 mph - 0.01 in Rain , Thunderstorm Rain
4:06 PM 55.4 °F 55.4 °F 100% 29.74 in 1.2 mi Calm Calm - 0.06 in Rain , Thunderstorm Rain
4:09 PM 57.2 °F 55.4 °F 94% 29.74 in 1.8 mi Variable 3.5 mph - 0.07 in Rain Rain
4:11 PM 57.2 °F 55.4 °F 94% 29.74 in 3.0 mi Variable 4.6 mph - 0.07 in Rain Light Rain
4:20 PM 57.2 °F 55.4 °F 94% 29.75 in 10.0 mi SW 3.5 mph - 0.07 in Rain , Thunderstorm Light Rain
4:28 PM 57.2 °F 55.4 °F 94% 29.74 in 10.0 mi Calm Calm - 0.07 in Thunderstorm Overcast
4:31 PM 57.2 °F 55.4 °F 94% 29.74 in 1.2 mi Calm Calm - 0.07 in Rain , Thunderstorm Light Rain
4:42 PM 57.2 °F 55.4 °F 94% 29.73 in 3.0 mi South 3.5 mph - 0.07 in Rain , Thunderstorm Light Rain
4:50 PM 55.4 °F 55.4 °F 100% 29.74 in 1.0 mi SSW 4.6 mph - 0.07 in Rain , Thunderstorm Light Rain
4:53 PM 55.9 °F 55.9 °F 100% 29.71 in 0.2 mi South 4.6 mph - 0.07 in Fog , Rain , Thunderstorm Light Rain
5:08 PM 55.4 °F 55.4 °F 100% 29.72 in 1.0 mi Calm Calm - 0.06 in Rain , Thunderstorm Light Thunderstorms and Rain
5:14 PM 55.4 °F 55.4 °F 100% 29.71 in 3.0 mi South 6.9 mph - 0.06 in Rain , Thunderstorm Light Rain
5:28 PM 57.2 °F 55.4 °F 94% 29.70 in 8.0 mi Variable 4.6 mph - 0.06 in Rain Light Rain
5:53 PM 59.0 °F 57.0 °F 93% 29.72 in 10.0 mi WSW 9.2 mph 38.0 mph 0.06 in Rain Light Rain
6:03 PM 59.0 °F 57.2 °F 94% 29.73 in 10.0 mi Variable 4.6 mph - 0.01 in Rain Light Rain
6:53 PM 61.0 °F 57.0 °F 87% 29.71 in 10.0 mi Variable 6.9 mph 16.1 mph 0.01 in   Overcast
7:53 PM 60.1 °F 55.9 °F 86% 29.71 in 10.0 mi SW 10.4 mph 26.5 mph N/A   Mostly Cloudy
8:16 PM 60.8 °F 57.2 °F 88% 29.73 in 10.0 mi Variable 4.6 mph 21.9 mph N/A   Scattered Clouds
8:53 PM 61.0 °F 57.0 °F 87% 29.71 in 10.0 mi SW 9.2 mph 19.6 mph 0.00 in Rain Light Rain
9:11 PM 60.8 °F 57.2 °F 88% 29.74 in 10.0 mi West 9.2 mph 28.8 mph 0.00 in Thunderstorm Overcast
9:19 PM 60.8 °F 57.2 °F 88% 29.75 in 1.8 mi Variable 5.8 mph 18.4 mph 0.00 in Rain , Thunderstorm Light Thunderstorms and Rain
9:22 PM 59.0 °F 57.2 °F 94% 29.76 in 1.2 mi WSW 10.4 mph 23.0 mph 0.00 in Rain , Thunderstorm Light Thunderstorms and Rain
9:28 PM 59.0 °F 55.4 °F 88% 29.75 in 2.0 mi SW 10.4 mph 28.8 mph 0.08 in Rain , Thunderstorm Light Thunderstorms and Rain
9:33 PM 59.0 °F 55.4 °F 88% 29.75 in 10.0 mi West 12.7 mph 27.6 mph 0.08 in   Mostly Cloudy
9:53 PM 59.0 °F 54.0 °F 83% 29.73 in 10.0 mi Variable 6.9 mph 20.7 mph 0.08 in   Partly Cloudy
10:53 PM 60.1 °F 43.0 °F 53% 29.74 in 10.0 mi West 13.8 mph 24.2 mph N/A   Clear
11:53 PM 57.2 °F 39.2 °F 51% 29.76 in 10.0 mi SW 9.2 mph 18.4 mph N/A   Clear